SCP
0 0 0 0 0 0 0 0 0 0 0 0 0 0 0 0 0 0 0 1 1 0 1 1 1 2 1 1 1 1 1 1 1 1 1 1 1 1 1 1 1 1 1
0 0 0 0 0 0 0 0 0 0 0 0 0 0 0 0 0 0 0 1 2 1 1 1 1 1 0 0 1 1 1 1 1 1 1 1 1 1 1 1 1 1 1
1 0 0 0 0 0 0 0 0 0 0 0 0 0 0 0 0 1 2 1 1 1 1 2 1 0 0 0 0 1 1 1 1 1 1 1 1 1 1 2 2 2 1
0 0 0 0 0 0 0 0 0 0 0 0 0 0 0 0 1 1 2 1 2 1 2 0 0 0 0 0 0 0 0 1 1 1 1 1 2 2 2 1 1 1 1
0 0 0 0 0 0 0 0 0 0 0 0 0 0 0 2 0 1 2 1 1 1 1 0 0 0 0 0 0 0 0 1 1 1 1 1 1 1 1 1 1 1 1
0 0 0 0 0 0 0 0 0 0 0 0 0 1 2 3 5 3 2 1 1 1 1 1 0 0 0 0 0 0 0 0 0 0 0 0 0 0 1 1 1 1 1
0 1 0 0 0 0 0 1 0 0 0 3 3 3 1 4 1 2 2 0 0 1 0 0 0 0 0 0 0 0 0 0 0 0 0 0 0 0 0 0 0 1 1
1 1 1 0 1 0 1 1 1 1 3 4 4 3 3 3 0 2 2 -0 1 -0 0 0 0 0 0 0 0 0 0 0 0 0 0 0 0 0 0 0 0 0 0
1 1 0 1 2 1 0 1 1 3 5 3 2 2 0 1 0 3 1 1 0 0 0 0 0 0 0 0 0 0 0 0 0 0 0 0 0 0 0 0 0 0 0
1 1 1 1 3 1 2 1 5 5 4 2 0 0 0 0 0 -0 0 0 0 0 0 0 0 0 0 0 0 0 0 0 0 0 0 0 0 0 0 0 0 0 0
1 1 2 2 4 1 5 3 2 2 0 0 0 0 0 0 1 0 0 0 0 0 0 0 0 0 0 0 0 0 0 0 0 0 0 0 0 0 0 0 0 0 0
1 2 1 3 3 4 5 3 2 1 1 0 0 0 0 0 1 0 0 0 0 0 0 0 0 0 0 0 0 0 0 0 0 0 0 0 0 0 0 0 0 0 0
1 2 2 3 5 4 3 2 2 1 0 0 0 0 0 1 1 0 0 0 0 0 0 0 0 0 0 0 0 0 0 0 0 0 0 0 0 0 0 0 0 0 0
3 4 3 5 3 2 2 1 1 0 0 0 0 0 1 0 0 0 0 0 0 0 0 0 0 0 0 0 0 0 0 0 0 0 -0 0 0 0 0 0 0 0 0
4 3 4 4 3 1 1 1 1 1 1 0 1 0 0 0 0 0 0 0 0 0 0 0 0 0 0 0 0 0 0 0 0 0 0 0 0 0 0 0 0 0 0
6 5 5 4 2 1 1 1 1 1 1 0 0 0 0 0 0 0 0 0 0 0 0 0 0 0 0 0 0 0 0 0 0 0 0 0 0 0 0 0 0 0 0
7 5 3 2 1 1 1 2 2 1 0 0 0 0 0 0 0 0 0 0 0 0 0 0 0 0 0 0 0 0 0 0 0 0 0 0 0 0 0 0 0 0 0
6 3 2 1 1 1 1 1 1 0 0 0 0 0 0 0 0 0 0 0 0 0 0 0 0 0 0 0 0 0 0 0 0 0 0 0 0 0 0 0 0 0 0
5 4 2 2 1 1 1 1 0 0 0 0 0 0 0 0 0 0 0 0 0 0 0 0 0 0 0 0 0 0 0 0 0 0 0 0 0 0 0 0 0 0 0
7 5 3 2 2 1 0 0 0 0 0 0 0 0 0 0 0 0 0 0 0 0 0 0 0 0 0 0 0 0 0 0 0 0 0 0 0 0 0 0 0 0 0
5 4 4 3 1 0 0 0 0 0 0 0 0 0 0 0 0 0 0 0 0 0 0 0 0 0 0 0 0 0 0 0 0 0 0 0 0 0 0 0 0 0 0
7 6 3 1 0 0 0 0 0 0 0 0 0 0 0 0 0 0 0 0 0 0 0 0 0 0 0 0 0 0 0 0 0 0 0 0 0 0 0 0 0 0 0
6 2 1 0 0 0 0 0 0 0 0 0 0 0 0 0 0 0 0 0 0 0 0 0 0 0 0 0 0 0 0 0 0 0 0 0 0 0 0 0 0 0 0
2 0 0 0 0 0 0 0 0 0 0 0 0 0 0 0 0 0 0 0 0 0 0 0 0 0 0 0 0 0 0 0 0 0 0 0 0 0 0 0 0 0 0
1 0 0 0 0 0 0 0 0 0 0 0 0 0 0 0 0 0 0 0 0 0 0 0 0 0 0 0 0 0 0 0 0 0 0 0 0 0 -0 0 0 0 0
0 0 0 0 0 0 0 0 0 0 0 0 0 0 0 0 0 0 0 0 0 0 0 0 0 0 0 0 0 0 0 0 0 0 0 0 0 0 0 0 0 0 0
Wind_Speed_500mb
37 35 29 26 23 23 21 20 18 20 22 19 18 19 19 21 22 20 20 34 37 41 41 42 44 45 46 48 46 43 44 47 47 46 45 44 45 41 33 30 32 36 40
41 35 34 29 25 25 22 21 20 20 17 15 18 19 19 20 20 22 23 26 38 42 39 43 49 46 45 41 39 39 39 40 43 42 40 38 36 34 32 34 36 41 45
43 35 30 28 26 25 23 22 20 18 15 15 16 17 18 20 20 20 23 30 28 39 41 42 47 41 36 36 39 39 40 41 43 43 41 40 38 39 39 40 39 44 49
41 46 31 27 26 25 22 19 18 16 15 15 16 18 20 20 20 24 21 29 27 27 33 38 44 40 39 41 41 41 42 41 41 41 41 40 38 39 38 40 45 47 47
42 38 32 28 30 25 22 20 18 17 16 16 17 21 16 28 16 24 25 32 16 20 21 34 43 38 42 54 47 43 42 40 40 40 38 37 37 37 39 40 43 47 47
45 47 33 31 34 25 23 21 20 14 16 17 17 21 16 14 26 24 15 12 20 25 19 38 33 36 42 49 50 47 42 37 35 36 36 35 36 36 36 40 44 45 44
46 46 32 35 33 27 25 24 18 17 12 15 11 16 15 12 22 22 19 14 26 28 27 36 23 27 25 41 48 46 37 34 33 32 31 31 34 37 38 36 40 42 43
52 51 43 35 31 25 27 23 19 17 16 26 11 5 2 8 16 18 28 33 30 21 24 27 38 29 31 22 38 36 33 34 33 31 29 29 30 30 30 33 37 40 41
55 51 45 40 37 30 24 25 25 22 23 14 15 17 9 15 21 31 32 27 32 39 38 23 31 27 24 19 28 33 31 31 32 32 31 30 31 31 34 36 36 35 36
59 50 46 46 38 27 29 22 36 36 34 29 14 9 25 20 19 25 23 24 40 31 31 29 17 19 26 22 34 41 37 36 37 35 34 32 31 31 31 32 34 35 35
53 49 48 45 47 37 43 46 47 41 36 27 14 26 26 25 19 21 40 37 29 21 31 31 29 17 22 23 25 45 49 47 45 40 37 37 36 36 37 36 36 35 34
54 56 53 56 51 51 62 60 46 41 26 18 28 40 40 26 13 18 25 27 32 30 31 30 26 21 21 24 33 43 55 49 52 45 40 38 38 38 37 37 36 35 34
59 65 62 58 59 61 61 47 45 34 21 22 27 24 21 21 20 18 21 26 28 34 35 23 21 22 21 23 28 47 45 45 53 46 43 42 40 38 37 37 37 36 33
62 63 64 63 58 61 52 41 34 27 29 33 37 24 19 18 19 22 20 19 28 32 31 17 19 21 19 30 34 45 29 41 44 39 40 37 36 34 35 36 37 37 36
65 64 68 60 63 55 45 37 31 35 44 39 29 22 14 19 18 21 19 13 21 31 29 21 18 26 34 43 31 43 29 34 28 31 34 29 31 32 31 31 31 31 32
66 67 68 62 57 51 41 38 40 44 41 25 23 22 20 19 19 20 15 13 16 19 26 25 22 32 43 33 25 31 28 35 37 41 40 39 36 38 36 35 33 33 33
70 69 65 66 60 50 45 49 38 41 37 33 29 25 23 18 13 12 13 12 11 15 21 22 20 25 29 27 28 28 26 30 28 43 47 47 39 40 38 36 36 34 33
73 64 60 61 57 51 51 53 45 38 39 35 28 21 19 19 18 19 9 19 13 15 16 20 21 20 23 30 29 30 28 28 29 36 43 45 47 45 31 36 37 35 38
73 63 61 58 53 48 53 47 44 40 37 29 21 19 21 16 14 14 12 11 8 10 12 16 17 19 23 23 35 27 32 31 29 32 31 37 39 39 38 44 46 49 53
76 67 61 55 54 45 45 44 41 38 32 25 23 21 15 11 10 9 6 10 13 9 11 16 16 19 20 26 29 29 32 29 31 19 25 28 32 34 36 38 42 53 46
73 65 63 56 50 47 46 43 42 38 32 24 20 16 21 15 16 12 8 10 5 6 8 11 14 19 23 29 30 30 27 29 23 19 28 22 21 23 28 37 41 51 40
75 70 59 55 56 42 47 49 41 32 26 22 20 17 9 14 10 8 9 9 5 4 7 10 13 19 23 26 26 23 25 24 23 26 31 16 23 25 22 17 38 46 42
79 68 61 57 55 54 53 44 35 30 23 19 15 9 8 6 9 5 2 5 5 10 11 13 14 16 20 21 23 19 21 20 22 21 38 14 25 28 20 24 43 50 42
77 71 62 63 60 57 53 44 38 29 25 21 17 15 20 17 9 8 9 3 6 10 15 15 12 13 12 16 24 18 31 35 26 17 36 16 29 32 19 19 37 44 44
70 65 59 59 61 63 51 43 37 30 27 22 25 20 12 11 7 8 7 3 5 5 11 8 13 18 16 22 28 19 18 24 22 14 23 27 31 41 16 17 33 33 39
71 60 58 58 63 63 53 47 32 26 27 21 18 21 14 7 9 9 8 5 2 2 8 8 22 27 33 36 39 36 25 19 22 17 33 38 29 37 22 18 41 31 40
Wind_Direction_500mb
202 185 198 195 198 211 203 216 209 236 238 246 257 272 283 282 288 300 300 307 309 316 314 309 305 302 304 306 304 305 305 305 303 300 297 296 298 299 298 295 295 295 296
212 195 198 192 204 204 207 212 222 231 246 253 270 278 279 285 291 294 303 306 310 318 311 316 313 308 302 302 307 308 310 310 308 305 301 298 296 293 293 293 293 293 294
214 188 198 198 205 207 205 213 222 236 234 264 274 276 287 294 299 297 304 303 314 330 320 317 313 313 313 314 309 310 310 308 307 305 302 300 296 293 293 293 291 293 295
206 192 202 204 208 209 215 217 229 239 253 267 275 281 286 291 295 315 320 323 311 307 315 316 319 325 322 318 314 313 313 311 309 307 305 302 299 296 292 294 295 295 296
198 204 200 210 207 212 215 220 232 241 255 268 277 281 273 267 319 313 304 304 342 316 333 326 322 327 325 319 320 320 318 317 309 305 303 302 299 296 294 296 297 299 300
200 214 202 203 217 211 218 223 226 235 254 264 275 314 322 302 343 356 -0 343 306 337 340 315 328 328 323 323 324 330 328 326 320 309 303 299 297 296 299 302 302 301 300
199 216 195 211 215 203 204 230 216 228 232 252 257 263 341 354 3 354 323 329 325 322 333 300 320 317 314 325 308 322 335 334 331 324 314 304 301 300 306 309 308 307 306
199 211 196 214 220 209 209 196 201 196 211 242 228 232 305 351 340 340 331 328 298 310 300 312 308 298 311 332 321 333 337 334 335 332 326 319 312 314 313 311 311 311 312
201 205 210 195 222 197 217 213 204 205 212 207 211 179 175 218 300 303 302 312 289 301 299 297 297 317 314 328 313 328 336 338 337 331 327 321 316 313 311 311 311 314 319
210 210 208 192 205 198 202 214 202 207 201 190 183 227 278 251 313 332 307 296 301 303 302 305 299 317 317 322 323 315 328 331 322 317 316 315 317 319 319 317 313 313 316
194 196 194 198 201 194 194 204 209 211 212 225 242 272 213 283 277 278 291 302 298 294 313 319 294 316 310 321 314 308 320 322 321 322 313 308 308 309 311 314 316 315 315
192 189 197 199 208 191 208 210 211 212 212 245 271 260 244 215 242 279 289 304 306 308 289 291 287 299 311 320 320 312 320 331 330 324 319 314 311 308 307 307 309 314 317
190 193 195 192 196 199 208 209 211 220 223 242 234 226 211 240 254 259 283 295 299 301 303 296 288 295 304 321 319 315 334 330 327 328 323 316 311 308 306 304 304 306 310
187 194 190 196 198 202 204 205 209 233 227 200 193 209 243 238 269 270 286 294 307 307 310 314 295 305 311 312 329 316 334 327 332 334 328 321 320 323 320 314 309 306 305
185 194 189 196 202 202 206 209 213 211 204 195 212 228 240 249 271 290 289 299 301 310 310 306 316 309 300 316 325 326 340 330 352 355 356 358 1 356 350 347 338 327 313
185 190 191 197 198 200 203 199 204 208 198 203 213 230 241 260 278 288 282 301 302 300 299 307 314 310 309 330 328 339 341 349 335 334 344 342 341 344 342 341 340 335 327
194 194 191 194 193 196 199 187 185 197 201 212 225 233 240 255 261 281 293 299 307 301 292 299 319 308 336 336 341 336 348 342 326 320 324 331 332 331 336 340 342 344 342
196 188 181 183 184 188 193 195 199 197 205 211 222 236 240 253 276 288 298 297 308 316 304 317 324 340 335 341 331 343 329 328 315 319 324 330 330 337 346 348 347 351 349
188 175 177 176 175 181 193 196 193 199 199 209 218 226 242 264 273 258 296 297 305 310 316 317 335 335 333 325 330 337 325 328 322 318 331 333 346 9 4 348 347 349 346
173 173 171 171 177 179 187 188 193 193 198 206 214 226 230 244 245 275 317 350 314 347 323 335 331 329 336 324 336 333 330 330 327 343 323 350 355 357 357 340 341 342 343
167 167 167 171 175 178 183 185 189 194 203 202 211 210 238 254 263 272 188 244 300 352 357 343 343 334 332 331 336 328 330 336 351 346 350 358 351 344 358 339 341 339 345
166 166 166 169 173 166 182 184 191 194 192 198 196 230 251 270 270 267 245 251 285 338 347 7 356 333 329 331 326 333 342 348 348 337 353 3 359 352 348 320 350 359 3
165 163 162 167 162 180 179 187 191 188 181 179 177 169 127 236 72 327 32 39 -0 351 354 349 345 335 328 320 330 345 338 353 342 342 349 355 355 353 352 336 345 343 351
170 168 162 171 176 173 176 184 187 174 171 163 165 161 200 243 216 189 114 83 31 356 343 11 14 358 351 3 5 24 8 353 355 314 345 -0 351 349 350 349 344 346 350
161 156 163 167 170 167 178 183 185 170 167 154 186 180 191 244 202 162 113 68 58 341 2 33 44 40 26 11 11 15 3 353 351 345 322 6 346 356 353 356 347 346 348
155 151 156 158 163 163 167 172 150 157 157 176 191 196 236 246 172 162 137 99 101 247 29 11 359 8 11 2 359 4 352 348 344 345 320 346 351 359 349 343 357 12 335
Wind_Speed_850mb
37 35 29 26 23 23 21 20 18 20 22 19 18 19 19 21 22 20 20 34 37 41 41 42 44 45 46 48 46 43 44 47 47 46 45 44 45 41 33 30 32 36 40
41 35 34 29 25 25 22 21 20 20 17 15 18 19 19 20 20 22 23 26 38 42 39 43 49 46 45 41 39 39 39 40 43 42 40 38 36 34 32 34 36 41 45
43 35 30 28 26 25 23 22 20 18 15 15 16 17 18 20 20 20 23 30 28 39 41 42 47 41 36 36 39 39 40 41 43 43 41 40 38 39 39 40 39 44 49
41 46 31 27 26 25 22 19 18 16 15 15 16 18 20 20 20 24 21 29 27 27 33 38 44 40 39 41 41 41 42 41 41 41 41 40 38 39 38 40 45 47 47
42 38 32 28 30 25 22 20 18 17 16 16 17 21 16 28 16 24 25 32 16 20 21 34 43 38 42 54 47 43 42 40 40 40 38 37 37 37 39 40 43 47 47
45 47 33 31 34 25 23 21 20 14 16 17 17 21 16 14 26 24 15 12 20 25 19 38 33 36 42 49 50 47 42 37 35 36 36 35 36 36 36 40 44 45 44
46 46 32 35 33 27 25 24 18 17 12 15 11 16 15 12 22 22 19 14 26 28 27 36 23 27 25 41 48 46 37 34 33 32 31 31 34 37 38 36 40 42 43
52 51 43 35 31 25 27 23 19 17 16 26 11 5 2 8 16 18 28 33 30 21 24 27 38 29 31 22 38 36 33 34 33 31 29 29 30 30 30 33 37 40 41
55 51 45 40 37 30 24 25 25 22 23 14 15 17 9 15 21 31 32 27 32 39 38 23 31 27 24 19 28 33 31 31 32 32 31 30 31 31 34 36 36 35 36
59 50 46 46 38 27 29 22 36 36 34 29 14 9 25 20 19 25 23 24 40 31 31 29 17 19 26 22 34 41 37 36 37 35 34 32 31 31 31 32 34 35 35
53 49 48 45 47 37 43 46 47 41 36 27 14 26 26 25 19 21 40 37 29 21 31 31 29 17 22 23 25 45 49 47 45 40 37 37 36 36 37 36 36 35 34
54 56 53 56 51 51 62 60 46 41 26 18 28 40 40 26 13 18 25 27 32 30 31 30 26 21 21 24 33 43 55 49 52 45 40 38 38 38 37 37 36 35 34
59 65 62 58 59 61 61 47 45 34 21 22 27 24 21 21 20 18 21 26 28 34 35 23 21 22 21 23 28 47 45 45 53 46 43 42 40 38 37 37 37 36 33
62 63 64 63 58 61 52 41 34 27 29 33 37 24 19 18 19 22 20 19 28 32 31 17 19 21 19 30 34 45 29 41 44 39 40 37 36 34 35 36 37 37 36
65 64 68 60 63 55 45 37 31 35 44 39 29 22 14 19 18 21 19 13 21 31 29 21 18 26 34 43 31 43 29 34 28 31 34 29 31 32 31 31 31 31 32
66 67 68 62 57 51 41 38 40 44 41 25 23 22 20 19 19 20 15 13 16 19 26 25 22 32 43 33 25 31 28 35 37 41 40 39 36 38 36 35 33 33 33
70 69 65 66 60 50 45 49 38 41 37 33 29 25 23 18 13 12 13 12 11 15 21 22 20 25 29 27 28 28 26 30 28 43 47 47 39 40 38 36 36 34 33
73 64 60 61 57 51 51 53 45 38 39 35 28 21 19 19 18 19 9 19 13 15 16 20 21 20 23 30 29 30 28 28 29 36 43 45 47 45 31 36 37 35 38
73 63 61 58 53 48 53 47 44 40 37 29 21 19 21 16 14 14 12 11 8 10 12 16 17 19 23 23 35 27 32 31 29 32 31 37 39 39 38 44 46 49 53
76 67 61 55 54 45 45 44 41 38 32 25 23 21 15 11 10 9 6 10 13 9 11 16 16 19 20 26 29 29 32 29 31 19 25 28 32 34 36 38 42 53 46
73 65 63 56 50 47 46 43 42 38 32 24 20 16 21 15 16 12 8 10 5 6 8 11 14 19 23 29 30 30 27 29 23 19 28 22 21 23 28 37 41 51 40
75 70 59 55 56 42 47 49 41 32 26 22 20 17 9 14 10 8 9 9 5 4 7 10 13 19 23 26 26 23 25 24 23 26 31 16 23 25 22 17 38 46 42
79 68 61 57 55 54 53 44 35 30 23 19 15 9 8 6 9 5 2 5 5 10 11 13 14 16 20 21 23 19 21 20 22 21 38 14 25 28 20 24 43 50 42
77 71 62 63 60 57 53 44 38 29 25 21 17 15 20 17 9 8 9 3 6 10 15 15 12 13 12 16 24 18 31 35 26 17 36 16 29 32 19 19 37 44 44
70 65 59 59 61 63 51 43 37 30 27 22 25 20 12 11 7 8 7 3 5 5 11 8 13 18 16 22 28 19 18 24 22 14 23 27 31 41 16 17 33 33 39
71 60 58 58 63 63 53 47 32 26 27 21 18 21 14 7 9 9 8 5 2 2 8 8 22 27 33 36 39 36 25 19 22 17 33 38 29 37 22 18 41 31 40
Wind_Direction_850mb
202 185 198 195 198 211 203 216 209 236 238 246 257 272 283 282 288 300 300 307 309 316 314 309 305 302 304 306 304 305 305 305 303 300 297 296 298 299 298 295 295 295 296
212 195 198 192 204 204 207 212 222 231 246 253 270 278 279 285 291 294 303 306 310 318 311 316 313 308 302 302 307 308 310 310 308 305 301 298 296 293 293 293 293 293 294
214 188 198 198 205 207 205 213 222 236 234 264 274 276 287 294 299 297 304 303 314 330 320 317 313 313 313 314 309 310 310 308 307 305 302 300 296 293 293 293 291 293 295
206 192 202 204 208 209 215 217 229 239 253 267 275 281 286 291 295 315 320 323 311 307 315 316 319 325 322 318 314 313 313 311 309 307 305 302 299 296 292 294 295 295 296
198 204 200 210 207 212 215 220 232 241 255 268 277 281 273 267 319 313 304 304 342 316 333 326 322 327 325 319 320 320 318 317 309 305 303 302 299 296 294 296 297 299 300
200 214 202 203 217 211 218 223 226 235 254 264 275 314 322 302 343 356 -0 343 306 337 340 315 328 328 323 323 324 330 328 326 320 309 303 299 297 296 299 302 302 301 300
199 216 195 211 215 203 204 230 216 228 232 252 257 263 341 354 3 354 323 329 325 322 333 300 320 317 314 325 308 322 335 334 331 324 314 304 301 300 306 309 308 307 306
199 211 196 214 220 209 209 196 201 196 211 242 228 232 305 351 340 340 331 328 298 310 300 312 308 298 311 332 321 333 337 334 335 332 326 319 312 314 313 311 311 311 312
201 205 210 195 222 197 217 213 204 205 212 207 211 179 175 218 300 303 302 312 289 301 299 297 297 317 314 328 313 328 336 338 337 331 327 321 316 313 311 311 311 314 319
210 210 208 192 205 198 202 214 202 207 201 190 183 227 278 251 313 332 307 296 301 303 302 305 299 317 317 322 323 315 328 331 322 317 316 315 317 319 319 317 313 313 316
194 196 194 198 201 194 194 204 209 211 212 225 242 272 213 283 277 278 291 302 298 294 313 319 294 316 310 321 314 308 320 322 321 322 313 308 308 309 311 314 316 315 315
192 189 197 199 208 191 208 210 211 212 212 245 271 260 244 215 242 279 289 304 306 308 289 291 287 299 311 320 320 312 320 331 330 324 319 314 311 308 307 307 309 314 317
190 193 195 192 196 199 208 209 211 220 223 242 234 226 211 240 254 259 283 295 299 301 303 296 288 295 304 321 319 315 334 330 327 328 323 316 311 308 306 304 304 306 310
187 194 190 196 198 202 204 205 209 233 227 200 193 209 243 238 269 270 286 294 307 307 310 314 295 305 311 312 329 316 334 327 332 334 328 321 320 323 320 314 309 306 305
185 194 189 196 202 202 206 209 213 211 204 195 212 228 240 249 271 290 289 299 301 310 310 306 316 309 300 316 325 326 340 330 352 355 356 358 1 356 350 347 338 327 313
185 190 191 197 198 200 203 199 204 208 198 203 213 230 241 260 278 288 282 301 302 300 299 307 314 310 309 330 328 339 341 349 335 334 344 342 341 344 342 341 340 335 327
194 194 191 194 193 196 199 187 185 197 201 212 225 233 240 255 261 281 293 299 307 301 292 299 319 308 336 336 341 336 348 342 326 320 324 331 332 331 336 340 342 344 342
196 188 181 183 184 188 193 195 199 197 205 211 222 236 240 253 276 288 298 297 308 316 304 317 324 340 335 341 331 343 329 328 315 319 324 330 330 337 346 348 347 351 349
188 175 177 176 175 181 193 196 193 199 199 209 218 226 242 264 273 258 296 297 305 310 316 317 335 335 333 325 330 337 325 328 322 318 331 333 346 9 4 348 347 349 346
173 173 171 171 177 179 187 188 193 193 198 206 214 226 230 244 245 275 317 350 314 347 323 335 331 329 336 324 336 333 330 330 327 343 323 350 355 357 357 340 341 342 343
167 167 167 171 175 178 183 185 189 194 203 202 211 210 238 254 263 272 188 244 300 352 357 343 343 334 332 331 336 328 330 336 351 346 350 358 351 344 358 339 341 339 345
166 166 166 169 173 166 182 184 191 194 192 198 196 230 251 270 270 267 245 251 285 338 347 7 356 333 329 331 326 333 342 348 348 337 353 3 359 352 348 320 350 359 3
165 163 162 167 162 180 179 187 191 188 181 179 177 169 127 236 72 327 32 39 -0 351 354 349 345 335 328 320 330 345 338 353 342 342 349 355 355 353 352 336 345 343 351
170 168 162 171 176 173 176 184 187 174 171 163 165 161 200 243 216 189 114 83 31 356 343 11 14 358 351 3 5 24 8 353 355 314 345 -0 351 349 350 349 344 346 350
161 156 163 167 170 167 178 183 185 170 167 154 186 180 191 244 202 162 113 68 58 341 2 33 44 40 26 11 11 15 3 353 351 345 322 6 346 356 353 356 347 346 348
155 151 156 158 163 163 167 172 150 157 157 176 191 196 236 246 172 162 137 99 101 247 29 11 359 8 11 2 359 4 352 348 344 345 320 346 351 359 349 343 357 12 335